[[{"header":{"parameterUnit":"m.s-1","parameterCategory":1,"la1":30.2991,"la2":30.254,"lo1":-89.0895,"lo2":-89.0444,"dy":0.0017,"dx":0.0017,"nx":28,"ny":28,"refTime":"2025-11-14T03:00:00:Z","depth":0,"parameterNumber":2,"parameterNumberName":"U-component_of_WINDS"},"data":[0,0,0,0,0,0,0,0,0,0,0,0,0,0,0,0,0,0,0,0,0,0,0,0,0,0,0,0,0,0,0,0,0,0,0,0,0,0,0,0,0,0,0,0,0,0,0,0,0,0,0,0,0,0,0,0,0,0,-0.9065,-0.9065,0,-0.9078,-0.9078,-0.9079,-0.907,-0.907,-0.9069,-0.9069,-0.9082,-0.9083,-0.9084,0,0,0,0,0,0,0,0,0,0,0,0,0,-0.9035,-0.9036,-0.9065,-0.9065,-0.9066,-0.9078,-0.9078,-0.9079,-0.907,-0.907,-0.9069,-0.9069,-0.9082,-0.9083,-0.9084,0,0,0,0,0,0,0,0,0,0,0,0,0,-0.9048,-0.9036,-0.9065,-0.9063,-0.9063,-0.9078,-0.9078,-0.9079,-0.907,-0.907,-0.9069,-0.9069,-0.9082,-0.9083,-0.9084,-0.9102,0,0,-0.9087,-0.9088,0,0,0,0,0,0,0,0,-0.9047,-0.9049,-0.9063,-0.9063,-0.9063,-0.9072,-0.9073,-0.9087,-0.9071,-0.9068,-0.9069,-0.9068,-0.9079,-0.9081,-0.9084,-0.9103,-0.9103,-0.9087,-0.9088,-0.9089,-0.9089,0,0,0,0,0,0,0,-0.9047,-0.9049,-0.907,-0.9063,-0.9063,-0.9062,-0.9063,-0.9075,-0.9077,-0.9068,-0.9067,-0.9069,-0.9079,-0.9083,-0.9085,-0.9104,-0.9087,-0.9088,-0.9089,-0.9089,-0.914,-0.9141,0,0,0,0,0,0,-0.9046,-0.9048,-0.907,-0.9071,-0.9054,-0.9063,-0.9064,-0.907,-0.9076,-0.9077,-0.9069,-0.9068,-0.9082,-0.9083,-0.9085,-0.9108,-0.9089,-0.909,-0.909,-0.914,-0.9141,-0.9141,0,0,0,0,0,0,-0.9045,-0.9048,-0.9069,-0.9059,-0.9062,-0.9064,-0.907,-0.907,-0.9074,-0.9078,-0.9078,-0.9073,-0.9081,-0.9084,-0.9099,-0.9108,-0.909,-0.9091,-0.9139,-0.914,-0.9141,-0.9153,0,0,0,0,0,0,-0.9044,-0.9048,-0.9054,-0.9059,-0.9062,-0.9082,-0.9071,-0.9071,-0.9076,-0.9075,-0.9081,-0.9082,-0.9081,-0.9097,-0.91,-0.9109,-0.9092,-0.9138,-0.9139,-0.9141,-0.9152,-0.9155,-0.9157,0,0,0,0,0,-0.9043,-0.9056,-0.9054,-0.9057,-0.907,-0.9083,-0.9084,-0.9083,-0.9077,-0.9084,-0.9086,-0.9081,-0.9107,-0.9099,-0.9102,-0.9112,-0.9137,-0.9139,-0.914,-0.9151,-0.9154,-0.9157,0,0,0,0,0,0,-0.9051,-0.9057,-0.9054,-0.907,-0.9076,-0.9081,-0.9089,-0.9087,-0.9094,-0.9093,-0.9092,-0.9093,-0.9109,-0.9112,-0.9103,-0.9131,-0.9121,-0.9124,-0.9128,-0.9131,-0.9134,-0.9133,-0.9093,0,0,0,0,0,-0.9055,-0.9064,-0.9069,-0.9082,-0.9085,-0.9087,-0.9092,-0.9091,-0.9097,-0.91,-0.9103,-0.911,-0.912,-0.9126,-0.9135,-0.9153,-0.9155,-0.9162,-0.9164,-0.9166,-0.9168,-0.918,-0.9183,-0.9147,-0.9146,-0.9146,0,0,-0.9062,-0.9066,-0.9072,-0.9084,-0.9088,-0.9098,-0.9089,-0.91,-0.9107,-0.9101,-0.9116,-0.9119,-0.9127,-0.9144,-0.9151,-0.9147,-0.9179,-0.9168,-0.917,-0.9171,-0.9182,-0.9185,-0.9188,-0.9148,-0.9147,-0.9147,0,0,-0.908,-0.9084,-0.9096,-0.9102,-0.9109,-0.9111,-0.9114,-0.912,-0.9122,-0.9137,-0.9133,-0.9143,-0.916,-0.9165,-0.9171,-0.9195,-0.9191,-0.9198,-0.921,-0.9222,-0.9224,-0.9227,-0.9236,-0.924,-0.92,-0.92,-0.92,0,-0.9088,-0.9103,-0.9103,-0.9114,-0.912,-0.9117,-0.9129,-0.9135,-0.9145,-0.9149,-0.9144,-0.9166,-0.917,-0.919,-0.9196,-0.92,-0.9204,-0.9196,-0.9224,-0.9227,-0.9229,-0.9238,-0.9241,-0.92,-0.92,-0.92,-0.92,0,-0.9113,-0.9124,-0.9133,-0.9143,-0.915,-0.9162,-0.9165,-0.9172,-0.9172,-0.9174,-0.9191,-0.9197,-0.9207,-0.9212,-0.9211,-0.9232,-0.9229,-0.9224,-0.9214,-0.9233,-0.9242,-0.9245,-0.9202,-0.9201,-0.9201,-0.9201,0,0,-0.9134,-0.9147,-0.915,-0.9156,-0.9165,-0.9173,-0.9186,-0.9198,-0.9204,-0.9212,-0.9224,-0.9239,-0.9235,-0.9241,-0.9241,-0.9251,-0.9272,-0.9245,-0.9246,-0.925,-0.9296,-0.93,-0.9304,-0.927,-0.927,-0.9271,-0.9296,0,-0.9154,-0.9176,-0.9177,-0.9198,-0.9208,-0.9207,-0.9218,-0.9226,-0.9229,-0.924,-0.9244,-0.9255,-0.9249,-0.9252,-0.9262,-0.9267,-0.9281,-0.9265,-0.9281,-0.9281,-0.9278,-0.9308,-0.9311,-0.9334,-0.9299,-0.93,-0.93,0,-0.9178,-0.9188,-0.9209,-0.9219,-0.9224,-0.9234,-0.9246,-0.9255,-0.9265,-0.9267,-0.9275,-0.9274,-0.9289,-0.928,-0.9301,-0.929,-0.9297,-0.9301,-0.9302,-0.9302,-0.9291,-0.931,-0.9342,-0.9345,-0.9305,-0.9305,-0.9304,0,-0.9192,-0.9211,-0.9226,-0.9231,-0.9243,-0.9251,-0.9256,-0.9265,-0.9272,-0.9283,-0.9288,-0.93,-0.9306,-0.9316,-0.932,-0.9312,-0.9341,-0.9331,-0.9344,-0.9344,-0.9349,-0.9348,-0.9382,-0.9354,-0.9354,-0.9354,-0.9354,0,-0.9213,-0.9227,-0.9233,-0.9243,-0.9258,-0.9261,-0.9277,-0.9282,-0.929,-0.9302,-0.9301,-0.9312,-0.9316,-0.9328,-0.9331,-0.9349,-0.9351,-0.9354,-0.9355,-0.9354,-0.9354,-0.9358,-0.9356,-0.9355,-0.9355,-0.9354,-0.9354,0,-0.9231,-0.9236,-0.9253,-0.9263,-0.9266,-0.9278,-0.9287,-0.9297,-0.9302,-0.9316,-0.932,-0.9327,-0.9341,-0.9346,-0.9363,-0.9365,-0.9386,-0.9385,-0.9383,-0.9383,-0.9395,-0.9394,-0.9432,-0.9438,-0.9406,-0.9406,-0.9407,0,-0.9243,-0.9254,-0.9266,-0.9274,-0.928,-0.9292,-0.93,-0.9304,-0.9313,-0.9326,-0.9335,-0.9349,-0.9361,-0.9384,-0.9391,-0.9405,-0.9404,-0.9417,-0.9406,-0.9406,-0.9405,-0.9404,-0.9406,-0.9419,-0.9419,-0.9419,-0.9419,0,-0.9266,-0.9268,-0.928,-0.9293,-0.9303,-0.9313,-0.9323,-0.933,-0.9336,-0.9345,-0.936,-0.937,-0.9388,-0.9403,-0.9417,-0.9424,-0.9423,-0.9423,-0.9427,-0.9426,-0.9424,-0.9426,-0.9388,-0.9422,-0.9422,-0.9421,-0.9421,-0.9421,-0.9282,-0.9291,-0.9302,-0.9316,-0.9324,-0.9334,-0.9344,-0.9351,-0.9364,-0.9379,-0.9381,-0.9397,-0.9409,-0.9429,-0.9436,-0.945,-0.9446,-0.9451,-0.9452,-0.9454,-0.9455,-0.9423,-0.9452,-0.9452,-0.9452,-0.9452,-0.9452,0,-0.9304,-0.9312,-0.9324,-0.9339,-0.935,-0.9349,-0.9361,-0.937,-0.9385,-0.9396,-0.9408,-0.9426,-0.9441,-0.945,-0.9466,-0.9475,-0.9475,-0.9479,-0.9478,-0.948,-0.9457,-0.9452,-0.9479,-0.9479,-0.9479,-0.9479,-0.9479,-0.9479,-0.9317,-0.9334,-0.9339,-0.9361,-0.9368,-0.9384,-0.9391,-0.9401,-0.941,-0.9431,-0.9443,-0.945,-0.9461,-0.9477,-0.9491,-0.9494,-0.95,-0.9504,-0.9506,-0.9484,-0.9481,-0.9479,-0.9474,-0.9505,-0.9505,-0.9528,-0.9528,-0.9529]},{"header":{"parameterUnit":"m.s-1","parameterCategory":1,"la1":30.2991,"la2":30.254,"lo1":-89.0895,"lo2":-89.0444,"dy":0.0017,"dx":0.0017,"nx":28,"ny":28,"refTime":"2025-11-14T03:00:00:Z","depth":0,"parameterNumber":3,"parameterNumberName":"V-component_of_WINDS"},"data":[0,0,0,0,0,0,0,0,0,0,0,0,0,0,0,0,0,0,0,0,0,0,0,0,0,0,0,0,0,0,0,0,0,0,0,0,0,0,0,0,0,0,0,0,0,0,0,0,0,0,0,0,0,0,0,0,0,0,2.3176,2.3176,0,2.3141,2.3141,2.314,2.3178,2.3179,2.3181,2.3182,2.3137,2.3135,2.3132,0,0,0,0,0,0,0,0,0,0,0,0,0,2.3269,2.3267,2.3176,2.3176,2.3175,2.3141,2.3141,2.314,2.3177,2.3179,2.3181,2.3183,2.3138,2.3135,2.3132,0,0,0,0,0,0,0,0,0,0,0,0,0,2.323,2.3266,2.3176,2.319,2.3191,2.3141,2.3141,2.314,2.3177,2.3179,2.3181,2.3183,2.3139,2.3135,2.3132,2.3064,0,0,2.312,2.3118,0,0,0,0,0,0,0,0,2.3232,2.3227,2.3188,2.3189,2.319,2.3166,2.3157,2.3114,2.3176,2.3182,2.3182,2.3185,2.3144,2.314,2.3129,2.3062,2.306,2.312,2.3117,2.3116,2.3114,0,0,0,0,0,0,0,2.3235,2.3228,2.3162,2.3188,2.3189,2.3196,2.3193,2.3149,2.3151,2.3182,2.3184,2.318,2.3145,2.3132,2.3128,2.3059,2.312,2.3116,2.3114,2.3112,2.2934,2.2931,0,0,0,0,0,0,2.3237,2.323,2.3163,2.3161,2.3217,2.3192,2.3189,2.3171,2.3152,2.3151,2.3178,2.3182,2.3138,2.3132,2.3126,2.3044,2.3116,2.3112,2.311,2.2936,2.2933,2.293,0,0,0,0,0,0,2.3239,2.3231,2.3165,2.3197,2.3189,2.3188,2.3168,2.317,2.3157,2.3149,2.3149,2.3165,2.3139,2.3132,2.3079,2.3043,2.311,2.3107,2.2939,2.2935,2.2932,2.288,0,0,0,0,0,0,2.3242,2.3231,2.3207,2.3196,2.3187,2.312,2.3166,2.3167,2.3151,2.3155,2.3137,2.3136,2.314,2.3085,2.3076,2.3039,2.3104,2.2942,2.2937,2.2933,2.2885,2.2875,2.2867,0,0,0,0,0,2.3245,2.3192,2.3206,2.3197,2.3157,2.3118,2.3113,2.3122,2.3148,2.3122,2.3118,2.3136,2.305,2.3079,2.3069,2.3031,2.2944,2.2939,2.2933,2.2889,2.2877,2.2867,0,0,0,0,0,0,2.3196,2.3191,2.3206,2.3149,2.3134,2.3125,2.3092,2.3109,2.3084,2.3089,2.3099,2.3094,2.3038,2.303,2.3063,2.2964,2.3001,2.2993,2.2971,2.2959,2.2951,2.2952,2.3101,0,0,0,0,0,2.318,2.3151,2.3147,2.3097,2.3089,2.3092,2.3076,2.3084,2.3068,2.3061,2.3052,2.3034,2.3002,2.2981,2.2952,2.2886,2.288,2.2854,2.2845,2.2838,2.2829,2.2792,2.2779,2.2912,2.2912,2.2912,0,0,2.3143,2.3137,2.3118,2.3087,2.3077,2.3044,2.3086,2.305,2.3025,2.3054,2.3005,2.2998,2.2978,2.2918,2.2891,2.2909,2.2792,2.2831,2.2825,2.282,2.2785,2.2772,2.2761,2.2908,2.2909,2.291,0,0,2.306,2.3054,2.3011,2.3001,2.2985,2.2988,2.2978,2.2966,2.2964,2.2915,2.2936,2.2906,2.2852,2.2836,2.2821,2.2734,2.2749,2.2724,2.2675,2.2638,2.2628,2.2618,2.2585,2.2573,2.2717,2.2717,2.2717,0,2.3016,2.2971,2.2986,2.2949,2.2934,2.2963,2.2918,2.2906,2.288,2.2868,2.289,2.2823,2.2812,2.2747,2.2727,2.2714,2.2701,2.2724,2.2629,2.2619,2.2611,2.2579,2.2566,2.2714,2.2714,2.2714,2.2715,0,2.2916,2.2884,2.2851,2.2829,2.281,2.2769,2.2776,2.2755,2.2766,2.2766,2.2715,2.2703,2.2671,2.2657,2.2666,2.2594,2.2605,2.2628,2.2664,2.2595,2.2565,2.2553,2.2709,2.271,2.2711,2.2712,0,0,2.2798,2.2787,2.2774,2.2764,2.2751,2.2725,2.2685,2.2657,2.2637,2.2619,2.2584,2.2539,2.256,2.2543,2.2551,2.2519,2.2448,2.2545,2.2545,2.2525,2.2364,2.2345,2.2331,2.246,2.2457,2.2456,2.2365,0,2.2713,2.2646,2.2659,2.2592,2.2561,2.2589,2.2554,2.254,2.2539,2.2511,2.2509,2.2476,2.2508,2.2498,2.2468,2.2463,2.2415,2.247,2.2423,2.2421,2.2424,2.2316,2.2295,2.221,2.2354,2.2352,2.235,0,2.2603,2.2584,2.2515,2.2506,2.2494,2.2462,2.2437,2.2411,2.2396,2.2397,2.2379,2.2393,2.2351,2.2391,2.2331,2.2368,2.235,2.2345,2.2342,2.2334,2.2379,2.2302,2.2183,2.2169,2.2332,2.2334,2.2335,0,2.2521,2.2478,2.243,2.2421,2.2411,2.2387,2.2381,2.2369,2.2351,2.2329,2.2317,2.2289,2.2273,2.225,2.2255,2.2285,2.2193,2.2234,2.2189,2.2189,2.2165,2.2166,2.2039,2.216,2.216,2.216,2.216,0,2.2422,2.2377,2.2393,2.2363,2.2314,2.233,2.228,2.2277,2.2266,2.2234,2.2257,2.2226,2.2237,2.2206,2.221,2.2158,2.2151,2.2149,2.2149,2.2144,2.2144,2.213,2.2134,2.2157,2.2157,2.2158,2.2159,0,2.232,2.2329,2.2279,2.2274,2.2272,2.2235,2.223,2.2201,2.2203,2.2163,2.2154,2.2156,2.2121,2.2126,2.2086,2.2088,2.2023,2.2033,2.2028,2.2029,2.1983,2.1986,2.1839,2.1819,2.1956,2.1955,2.1954,0,2.2254,2.2221,2.2214,2.2196,2.2189,2.2159,2.2142,2.2156,2.2137,2.2118,2.209,2.2058,2.2033,2.1975,2.1971,2.1941,2.1948,2.1899,2.1943,2.1939,2.1943,2.1944,2.1939,2.1888,2.1887,2.1885,2.1884,0,2.2136,2.2143,2.2119,2.2096,2.2076,2.2058,2.2042,2.2025,2.2038,2.2015,2.1981,2.1962,2.1923,2.1889,2.1861,2.1852,2.1868,2.1871,2.1859,2.1851,2.1849,2.1847,2.2001,2.1873,2.1874,2.1875,2.1876,2.1876,2.2048,2.202,2.201,2.1982,2.1973,2.1958,2.193,2.193,2.1903,2.1874,2.1884,2.1845,2.183,2.1794,2.1782,2.175,2.1767,2.175,2.1745,2.1739,2.1733,2.1858,2.1745,2.1745,2.1746,2.1746,2.1746,0,2.1929,2.1925,2.19,2.1878,2.1855,2.1878,2.1862,2.184,2.1807,2.1793,2.1769,2.1729,2.1697,2.1692,2.1661,2.1636,2.1643,2.1627,2.1627,2.1624,2.172,2.1733,2.1622,2.1622,2.1622,2.1622,2.1622,2.1622,2.1864,2.1816,2.1822,2.1769,2.1765,2.1729,2.1718,2.1703,2.1692,2.1647,2.1622,2.1621,2.1609,2.1578,2.1549,2.1548,2.1534,2.1514,2.1516,2.1605,2.1617,2.1629,2.1641,2.1512,2.1512,2.1422,2.1421,2.142]}]]